Regional Weather Roundup
Issued by NWS

Current Version | Previous Version | Text Only | Print | Product List | Glossary On
Versions: 1 2 3 4 5 6 7 8 9 10 11 12 13 14 15 16 17 18 19 20 21 22 23 24 25 26 27
000
ASUS44 KBMX 290510
RWRAL

ALABAMA REGIONAL WEATHER ROUNDUP
NATIONAL WEATHER SERVICE BIRMINGHAM AL
1200 AM CDT FRI JUL 29 2016

NOTE: "FAIR" INDICATES FEW OR NO CLOUDS BELOW 12,000 FEET
WITH NO SIGNIFICANT WEATHER AND/OR OBSTRUCTIONS TO VISIBILITY.

THE REMARK "TC" DENOTES TEMPERATURE IN DEGREES CELSIUS.

ALZ001>011-014-016>018-020-290600-
NORTH ALABAMA

CITY           SKY/WX    TMP DP  RH WIND       PRES   REMARKS
MUSCLE SHOALS  CLEAR     73  70  90 CALM      30.00R
HUNTSVILLE     PTCLDY    74  70  87 CALM      30.00S
DECATUR        PTCLDY    73  72  96 CALM      30.00S
HALEYVILLE     FAIR      72  71  97 CALM      30.03S
GADSDEN        CLEAR     73  72  96 CALM        N/A
$$

ALZ012-013-022-023-030>036-040>044-290600-
WEST CENTRAL ALABAMA

CITY           SKY/WX    TMP DP  RH WIND       PRES   REMARKS
TUSCALOOSA     CLEAR     75  75 100 S3        30.00S
$$

ALZ015-024>027-033>036-040>044-290600-
CENTRAL ALABAMA

CITY           SKY/WX    TMP DP  RH WIND       PRES   REMARKS
BIRMINGHAM     PTCLDY    77  73  87 CALM      30.03S
MONTGOMERY     CLEAR     76  72  87 S6        30.02R
SHELBY CO ARPT CLEAR     74  72  93 CALM      30.01S
MAXWELL AFB    CLEAR     76  73  89 S3        30.01S
GREENVILLE     FAIR      76  69  79 S3        30.03
$$

ALZ019-021-028-029-037-038-045>048-290600-
EAST CENTRAL ALABAMA

CITY           SKY/WX    TMP DP  RH WIND       PRES   REMARKS
ANNISTON       CLEAR     73  70  90 CALM      30.01F
ALEXANDER CITY CLEAR     73  73 100 CALM      30.03R
AUBURN         CLEAR     77  70  79 SW5       30.04F
$$

ALZ051>064-290600-
SOUTHWEST ALABAMA

CITY           SKY/WX    TMP DP  RH WIND       PRES   REMARKS
MOBILE         PTCLDY    76  74  93 CALM      30.05R
BROOKLEY FIELD PTCLDY    78  77  96 W3        30.04S
EVERGREEN      PTCLDY    75  72  90 S3        30.04S
$$

ALZ049-050-065>069-290600-
SOUTHEAST ALABAMA

CITY           SKY/WX    TMP DP  RH WIND       PRES   REMARKS
DOTHAN         CLEAR     79  75  87 SW7       30.07S
OZARK          CLEAR     78  75  91 S5        30.03S
TROY           CLEAR     74  73  97 CALM      30.04S
EUFAULA        FAIR      79  73  82 CALM      30.02S
$$




USA.gov is the U.S. government's official web portal to all federal, state and local government web resources and services.